Regional Weather Roundup
Issued by NWS Goodland, KS

Home | Current Version | Previous Version | Graphics & Text | Print | Product List | Glossary On
Versions: 1 2 3 4 5 6 7 8 9 10 11 12 13 14 15 16 17 18 19 20 21 22 23 24 25 26 27 28 29 30 31 32 33 34 35 36 37 38 39 40 41 42 43 44 45 46 47 48 49 50
000
ASUS43 KGLD 241808
RWRGLD

GOODLAND FORECAST AREA HOURLY WEATHER ROUNDUP
NATIONAL WEATHER SERVICE GOODLAND KS
1100 AM MST TUE JAN 24 2017

...OFFICIAL OBSERVATIONS...

CITY           SKY/WX    TMP DP  RH WIND       PRES   REMARKS
GOODLAND KS    CLOUDY    31  30  96 N22G31    29.50S WCI  18
HILL CITY KS   CLOUDY    35  33  92 NW9       29.49R FOG
IMPERIAL NEB   CLOUDY    31  28  89 N16       29.55S WCI  20
MCCOOK NEB     CLOUDY    32  31  96 N8        29.53S FOG
AKRON CO       CLOUDY    23  20  88 N18G29    29.58S WCI   9
BURLINGTON CO  CLOUDY    31  29  92 N17G28    29.51F WCI  19
LIMON CO       FOG       25  25 100 N24       29.54R VSB 1/4 WCI   9
$$

...UNOFFICIAL OBSERVATIONS...

CITY           SKY/WX    TMP DP  RH WIND       PRES   REMARKS
LENORA KS        N/A     33  32  96 N6          N/A
NORTON KS      CLOUDY    34  28  80 NW8       29.50S FOG
SHARON SPRINGS   N/A     33  30  89 NW16G28     N/A
TRENTON NEB      N/A     31  32 100 N9          N/A
KIT CARSON CO    N/A     31  27  84 MISG        N/A
$$



USA.gov is the U.S. government's official web portal to all federal, state and local government web resources and services.